Tracking 19908 objects as of 19-Oct-2019
HD Live streaming from Space Station
objects crossing your sky now

BREEZE-M DEB (TANK)

Track BREEZE-M DEB (TANK) now!
10-day predictions


NORAD ID: 39524
Int'l Code: 2014-007C
Perigee: 331.7 km
Apogee: 21,632.5 km
Inclination: 49.3 °
Period: 379.2 minutes
Semi major axis: 17353 km
RCS: Unknown
Launch date: February 14, 2014
Source: Commonwealth of Independent States (former USSR) (CIS)
Launch site: TYURATAM MISSILE AND SPACE COMPLEX (TTMTR)

Note: This is SATELLITE DEBRIS
aabbcc
Your satellite tracking list
Your tracking list is empty




NASA's NSSDC Master Catalog

Two Line Element Set (TLE):
1 39524U 14007C   19291.43308794  .00000545  00000-0  22955-3 0  9995
2 39524  49.2619 158.0846 6137475 163.7264 231.6262  3.79784856 77621
Source of the keplerian elements: AFSPC